Time,TemperatureF,DewpointF,PressureIn,WindDirection,WindDirectionDegrees,WindSpeedMPH,WindSpeedGustMPH,Humidity,HourlyPrecipIn,Conditions,Clouds,dailyrainin,SolarRadiationWatts/m^2,SoftwareType,DateUTC
2013-01-21 00:00:00,22.6,22.6,30.41,South,181,0.0,0.0,100,0.00,,,0.00,0,WeatherHawk,2013-01-21 08:00:00,
2013-01-21 00:05:00,23.3,23.3,30.42,South,181,0.0,0.0,100,0.00,,,0.00,0,WeatherHawk,2013-01-21 08:05:00,
2013-01-21 00:10:00,21.9,21.9,30.41,South,181,0.0,-999.0,100,0.00,,,0.00,0,WeatherHawk,2013-01-21 08:10:00,
2013-01-21 00:15:00,22.4,22.4,30.42,South,181,0.0,0.0,100,0.00,,,0.00,0,WeatherHawk,2013-01-21 08:15:00,
2013-01-21 00:20:00,22.3,22.3,30.41,South,181,0.0,-999.0,100,0.00,,,0.00,0,WeatherHawk,2013-01-21 08:20:00,
2013-01-21 00:25:00,22.1,22.1,30.41,South,181,0.0,-999.0,100,0.00,,,0.00,0,WeatherHawk,2013-01-21 08:25:00,
2013-01-21 00:30:00,23.1,23.1,30.41,South,181,0.0,0.0,100,0.00,,,0.00,1,WeatherHawk,2013-01-21 08:30:00,
2013-01-21 00:35:00,23.1,23.1,30.41,South,181,0.0,0.0,100,0.00,,,0.00,0,WeatherHawk,2013-01-21 08:35:00,
2013-01-21 00:40:00,22.8,22.8,30.41,South,181,0.0,0.0,100,0.00,,,0.00,0,WeatherHawk,2013-01-21 08:40:00,
2013-01-21 00:45:00,21.8,21.8,30.41,ESE,104,4.0,0.0,100,0.00,,,0.00,0,WeatherHawk,2013-01-21 08:45:00,
2013-01-21 00:50:00,21.5,21.5,30.40,ESE,106,5.0,0.0,100,0.00,,,0.00,1,WeatherHawk,2013-01-21 08:50:00,
2013-01-21 00:55:00,21.8,21.8,30.40,ESE,105,4.0,0.0,100,0.00,,,0.00,0,WeatherHawk,2013-01-21 08:55:00,
2013-01-21 01:00:00,21.0,21.0,30.40,ESE,111,4.0,0.0,100,0.00,,,0.00,1,WeatherHawk,2013-01-21 09:00:00,
2013-01-21 01:06:00,22.2,22.2,30.40,ESE,107,5.0,0.0,100,0.00,,,0.00,0,WeatherHawk,2013-01-21 09:06:00,
2013-01-21 01:11:00,21.2,21.2,30.40,ESE,121,0.0,0.0,100,0.00,,,0.00,0,WeatherHawk,2013-01-21 09:11:00,
2013-01-21 01:16:00,20.8,20.8,30.40,ESE,121,0.0,0.0,100,0.00,,,0.00,0,WeatherHawk,2013-01-21 09:16:00,
2013-01-21 01:21:00,21.0,21.0,30.40,ESE,121,0.0,0.0,100,0.00,,,0.00,0,WeatherHawk,2013-01-21 09:21:00,
2013-01-21 01:26:00,21.1,21.1,30.40,ESE,121,0.0,0.0,100,0.00,,,0.00,0,WeatherHawk,2013-01-21 09:26:00,
2013-01-21 01:32:00,21.7,21.7,30.41,ESE,121,4.0,0.0,100,0.00,,,0.00,0,WeatherHawk,2013-01-21 09:32:00,
2013-01-21 01:37:00,21.2,21.2,30.41,ESE,120,4.0,0.0,100,0.00,,,0.00,0,WeatherHawk,2013-01-21 09:37:00,
2013-01-21 01:42:00,20.2,20.2,30.41,SE,134,3.0,0.0,100,0.00,,,0.00,0,WeatherHawk,2013-01-21 09:42:00,
2013-01-21 01:47:00,20.1,20.1,30.41,ESE,121,4.0,0.0,100,0.00,,,0.00,0,WeatherHawk,2013-01-21 09:47:00,
2013-01-21 01:53:00,20.0,20.0,30.41,ESE,115,4.0,0.0,100,0.00,,,0.00,0,WeatherHawk,2013-01-21 09:53:00,
2013-01-21 01:58:00,20.0,19.7,30.41,SE,135,4.0,0.0,99,0.00,,,0.00,0,WeatherHawk,2013-01-21 09:58:00,
2013-01-21 02:03:00,19.8,19.4,30.41,ESE,110,5.0,0.0,98,0.00,,,0.00,0,WeatherHawk,2013-01-21 10:03:00,
2013-01-21 02:08:00,19.4,18.6,30.41,SE,126,3.0,0.0,97,0.00,,,0.00,0,WeatherHawk,2013-01-21 10:08:00,
2013-01-21 02:14:00,19.7,18.7,30.41,ESE,119,3.0,0.0,96,0.00,,,0.00,1,WeatherHawk,2013-01-21 10:14:00,
2013-01-21 02:19:00,19.6,18.7,30.41,ESE,116,0.0,0.0,96,0.00,,,0.00,0,WeatherHawk,2013-01-21 10:19:00,
2013-01-21 02:24:00,18.9,17.7,30.41,East,95,6.0,0.0,95,0.00,,,0.00,0,WeatherHawk,2013-01-21 10:24:00,
2013-01-21 02:30:00,19.1,17.7,30.41,ESE,108,4.0,0.0,94,0.00,,,0.00,1,WeatherHawk,2013-01-21 10:30:00,
2013-01-21 02:35:00,19.8,18.6,30.41,ESE,117,6.0,-999.0,95,0.00,,,0.00,0,WeatherHawk,2013-01-21 10:35:00,
2013-01-21 02:40:00,19.8,18.6,30.40,East,81,3.0,-999.0,95,0.00,,,0.00,1,WeatherHawk,2013-01-21 10:40:00,
2013-01-21 02:45:00,19.7,18.5,30.41,SE,124,3.0,-999.0,95,0.00,,,0.00,0,WeatherHawk,2013-01-21 10:45:00,
2013-01-21 02:50:00,19.3,17.8,30.40,ESE,106,5.0,-999.0,94,0.00,,,0.00,0,WeatherHawk,2013-01-21 10:50:00,
2013-01-21 02:55:00,19.4,18.0,30.40,ESE,108,3.0,0.0,94,0.00,,,0.00,0,WeatherHawk,2013-01-21 10:55:00,
2013-01-21 03:00:00,19.5,17.8,30.40,ESE,105,3.0,0.0,93,0.00,,,0.00,0,WeatherHawk,2013-01-21 11:00:00,
2013-01-21 03:05:00,18.8,16.8,30.41,ESE,114,4.0,-999.0,92,0.00,,,0.00,0,WeatherHawk,2013-01-21 11:05:00,
2013-01-21 03:10:00,18.8,16.9,30.41,ESE,107,4.0,0.0,92,0.00,,,0.00,0,WeatherHawk,2013-01-21 11:10:00,
2013-01-21 03:15:00,19.0,17.0,30.40,ESE,123,2.0,-999.0,92,0.00,,,0.00,0,WeatherHawk,2013-01-21 11:15:00,
2013-01-21 03:20:00,19.0,17.3,30.40,SE,138,0.0,-999.0,93,0.00,,,0.00,1,WeatherHawk,2013-01-21 11:20:00,
2013-01-21 03:25:00,18.8,17.2,30.40,ESE,105,2.0,-999.0,93,0.00,,,0.00,0,WeatherHawk,2013-01-21 11:25:00,
2013-01-21 03:30:00,18.8,16.9,30.40,East,96,3.0,0.0,92,0.00,,,0.00,0,WeatherHawk,2013-01-21 11:30:00,
2013-01-21 03:35:00,18.7,16.8,30.40,ESE,117,3.0,0.0,92,0.00,,,0.00,0,WeatherHawk,2013-01-21 11:35:00,
2013-01-21 03:40:00,18.7,16.8,30.40,ESE,102,0.0,-999.0,92,0.00,,,0.00,0,WeatherHawk,2013-01-21 11:40:00,
2013-01-21 03:45:00,18.6,16.6,30.40,ENE,73,1.0,0.0,92,0.00,,,0.00,0,WeatherHawk,2013-01-21 11:45:00,
2013-01-21 03:50:00,18.5,16.6,30.39,East,97,2.0,0.0,92,0.00,,,0.00,0,WeatherHawk,2013-01-21 11:50:00,
2013-01-21 03:55:00,18.4,16.5,30.39,ESE,108,2.0,-999.0,92,0.00,,,0.00,1,WeatherHawk,2013-01-21 11:55:00,
2013-01-21 04:00:00,18.1,15.9,30.39,East,101,3.0,0.0,91,0.00,,,0.00,1,WeatherHawk,2013-01-21 12:00:00,
2013-01-21 04:05:00,18.0,15.9,30.39,ESE,113,3.0,0.0,91,0.00,,,0.00,0,WeatherHawk,2013-01-21 12:05:00,
2013-01-21 04:10:00,18.4,16.2,30.40,South,191,1.0,0.0,91,0.00,,,0.00,0,WeatherHawk,2013-01-21 12:10:00,
2013-01-21 04:15:00,18.5,16.5,30.40,SSE,148,0.0,0.0,92,0.00,,,0.00,0,WeatherHawk,2013-01-21 12:15:00,
2013-01-21 04:20:00,18.2,16.3,30.39,ESE,118,0.0,0.0,92,0.00,,,0.00,0,WeatherHawk,2013-01-21 12:20:00,
2013-01-21 04:25:00,18.1,16.2,30.39,ESE,113,0.0,0.0,92,0.00,,,0.00,0,WeatherHawk,2013-01-21 12:25:00,
2013-01-21 04:30:00,18.0,15.8,30.39,SE,129,2.0,0.0,91,0.00,,,0.00,0,WeatherHawk,2013-01-21 12:30:00,
2013-01-21 04:35:00,18.1,16.2,30.39,SE,126,2.0,0.0,92,0.00,,,0.00,0,WeatherHawk,2013-01-21 12:35:00,
2013-01-21 04:40:00,17.7,15.6,30.39,ESE,119,3.0,0.0,91,0.00,,,0.00,0,WeatherHawk,2013-01-21 12:40:00,
2013-01-21 04:45:00,17.3,14.9,30.39,ESE,116,4.0,-999.0,90,0.00,,,0.00,0,WeatherHawk,2013-01-21 12:45:00,
2013-01-21 04:50:00,17.5,15.1,30.40,SE,127,2.0,0.0,90,0.00,,,0.00,1,WeatherHawk,2013-01-21 12:50:00,
2013-01-21 04:55:00,17.6,15.4,30.40,SE,131,0.0,0.0,91,0.00,,,0.00,0,WeatherHawk,2013-01-21 12:55:00,
2013-01-21 05:00:00,17.3,15.1,30.40,ESE,114,3.0,0.0,91,0.00,,,0.00,0,WeatherHawk,2013-01-21 13:00:00,
2013-01-21 05:05:00,17.1,15.0,30.39,SE,138,3.0,0.0,91,0.00,,,0.00,0,WeatherHawk,2013-01-21 13:05:00,
2013-01-21 05:10:00,17.1,14.7,30.39,SE,129,4.0,0.0,90,0.00,,,0.00,0,WeatherHawk,2013-01-21 13:10:00,
2013-01-21 05:16:00,16.9,14.5,30.39,SE,144,3.0,0.0,90,0.00,,,0.00,0,WeatherHawk,2013-01-21 13:16:00,
2013-01-21 05:21:00,17.1,14.9,30.40,SSE,156,2.0,0.0,91,0.00,,,0.00,0,WeatherHawk,2013-01-21 13:21:00,
2013-01-21 05:26:00,17.3,15.1,30.39,ESE,107,3.0,0.0,91,0.00,,,0.00,0,WeatherHawk,2013-01-21 13:26:00,
2013-01-21 05:31:00,17.0,14.8,30.39,SE,136,2.0,0.0,91,0.00,,,0.00,0,WeatherHawk,2013-01-21 13:31:00,
2013-01-21 05:36:00,17.1,14.9,30.39,SE,143,2.0,0.0,91,0.00,,,0.00,0,WeatherHawk,2013-01-21 13:36:00,
2013-01-21 05:41:00,16.7,14.3,30.39,SE,130,0.0,0.0,90,0.00,,,0.00,0,WeatherHawk,2013-01-21 13:41:00,
2013-01-21 05:46:00,16.4,14.0,30.39,SSE,150,3.0,0.0,90,0.00,,,0.00,0,WeatherHawk,2013-01-21 13:46:00,
2013-01-21 05:52:00,15.9,13.2,30.39,SE,139,3.0,0.0,89,0.00,,,0.00,0,WeatherHawk,2013-01-21 13:52:00,
2013-01-21 05:57:00,15.9,13.2,30.39,SE,127,3.0,0.0,89,0.00,,,0.00,0,WeatherHawk,2013-01-21 13:57:00,
2013-01-21 06:02:00,15.8,13.1,30.39,South,173,3.0,0.0,89,0.00,,,0.00,0,WeatherHawk,2013-01-21 14:02:00,
2013-01-21 06:08:00,15.5,12.8,30.39,SSE,154,3.0,0.0,89,0.00,,,0.00,0,WeatherHawk,2013-01-21 14:08:00,
2013-01-21 06:13:00,15.4,12.7,30.39,SSE,151,3.0,0.0,89,0.00,,,0.00,0,WeatherHawk,2013-01-21 14:13:00,
2013-01-21 06:18:00,15.4,12.8,30.39,South,173,3.0,0.0,89,0.00,,,0.00,0,WeatherHawk,2013-01-21 14:18:00,
2013-01-21 06:24:00,15.7,13.3,30.39,SSE,147,3.0,0.0,90,0.00,,,0.00,0,WeatherHawk,2013-01-21 14:24:00,
2013-01-21 06:30:00,17.0,15.1,30.39,SSE,149,1.0,0.0,92,0.00,,,0.00,1,WeatherHawk,2013-01-21 14:30:00,
2013-01-21 06:35:00,17.2,15.8,30.39,South,169,0.0,0.0,94,0.00,,,0.00,0,WeatherHawk,2013-01-21 14:35:00,
2013-01-21 06:40:00,17.4,16.0,30.39,SSE,147,0.0,0.0,94,0.00,,,0.00,0,WeatherHawk,2013-01-21 14:40:00,
2013-01-21 06:45:00,17.7,16.1,30.39,SSW,195,0.0,-999.0,93,0.00,,,0.00,0,WeatherHawk,2013-01-21 14:45:00,
2013-01-21 06:50:00,17.7,16.2,30.38,NW,307,0.0,0.0,94,0.00,,,0.00,0,WeatherHawk,2013-01-21 14:50:00,
2013-01-21 06:55:00,17.9,16.4,30.38,WNW,286,0.0,-999.0,94,0.00,,,0.00,1,WeatherHawk,2013-01-21 14:55:00,
2013-01-21 07:00:00,17.8,16.3,30.38,NNW,345,0.0,-999.0,94,0.00,,,0.00,0,WeatherHawk,2013-01-21 15:00:00,
2013-01-21 07:05:00,17.8,16.4,30.38,WSW,252,0.0,0.0,94,0.00,,,0.00,0,WeatherHawk,2013-01-21 15:05:00,
2013-01-21 07:10:00,17.9,16.4,30.38,WSW,252,0.0,0.0,94,0.00,,,0.00,0,WeatherHawk,2013-01-21 15:10:00,
2013-01-21 07:15:00,17.5,15.9,30.38,NE,47,0.0,0.0,93,0.00,,,0.00,0,WeatherHawk,2013-01-21 15:15:00,
2013-01-21 07:20:00,17.1,14.9,30.38,NNE,33,0.0,0.0,91,0.00,,,0.00,0,WeatherHawk,2013-01-21 15:20:00,
2013-01-21 07:25:00,17.0,14.8,30.38,NE,34,0.0,0.0,91,0.00,,,0.00,0,WeatherHawk,2013-01-21 15:25:00,
2013-01-21 07:30:00,16.9,14.7,30.38,NNE,14,0.0,-999.0,91,0.00,,,0.00,1,WeatherHawk,2013-01-21 15:30:00,
2013-01-21 07:35:00,16.8,14.4,30.37,NNE,25,0.0,0.0,90,0.00,,,0.00,3,WeatherHawk,2013-01-21 15:35:00,
2013-01-21 07:40:00,15.7,12.7,30.38,ESE,107,2.0,-999.0,88,0.00,,,0.00,3,WeatherHawk,2013-01-21 15:40:00,
2013-01-21 07:45:00,15.6,12.5,30.38,SE,128,0.0,-999.0,87,0.00,,,0.00,5,WeatherHawk,2013-01-21 15:45:00,
2013-01-21 07:50:00,15.4,12.2,30.38,ESE,117,1.0,-999.0,87,0.00,,,0.00,6,WeatherHawk,2013-01-21 15:50:00,
2013-01-21 07:55:00,15.4,12.2,30.38,SE,143,1.0,0.0,87,0.00,,,0.00,8,WeatherHawk,2013-01-21 15:55:00,
2013-01-21 08:00:00,15.5,12.6,30.39,SSE,163,0.0,0.0,88,0.00,,,0.00,10,WeatherHawk,2013-01-21 16:00:00,
2013-01-21 08:05:00,15.9,13.2,30.39,SE,135,0.0,0.0,89,0.00,,,0.00,10,WeatherHawk,2013-01-21 16:05:00,
2013-01-21 08:10:00,16.0,13.6,30.39,SE,132,0.0,0.0,90,0.00,,,0.00,12,WeatherHawk,2013-01-21 16:10:00,
2013-01-21 08:15:00,16.3,14.1,30.39,NE,42,0.0,-999.0,91,0.00,,,0.00,17,WeatherHawk,2013-01-21 16:15:00,
2013-01-21 08:20:00,16.6,14.4,30.39,East,93,1.0,0.0,91,0.00,,,0.00,16,WeatherHawk,2013-01-21 16:20:00,
2013-01-21 08:25:00,17.2,15.2,30.38,NE,36,0.0,0.0,92,0.00,,,0.00,30,WeatherHawk,2013-01-21 16:25:00,
2013-01-21 08:30:00,17.2,15.6,30.38,NNW,335,0.0,-999.0,93,0.00,,,0.00,39,WeatherHawk,2013-01-21 16:30:00,
2013-01-21 08:35:00,17.6,16.0,30.38,North,5,0.0,0.0,93,0.00,,,0.00,39,WeatherHawk,2013-01-21 16:35:00,
2013-01-21 08:40:00,17.9,16.2,30.38,North,5,0.0,0.0,93,0.00,,,0.00,50,WeatherHawk,2013-01-21 16:40:00,
2013-01-21 08:45:00,17.6,15.7,30.38,ENE,71,0.0,-999.0,92,0.00,,,0.00,47,WeatherHawk,2013-01-21 16:45:00,
2013-01-21 08:50:00,17.8,15.9,30.38,ENE,71,0.0,0.0,92,0.00,,,0.00,58,WeatherHawk,2013-01-21 16:50:00,
2013-01-21 08:55:00,17.8,15.7,30.37,NE,55,0.0,-999.0,91,0.00,,,0.00,68,WeatherHawk,2013-01-21 16:55:00,
2013-01-21 09:00:00,17.8,15.3,30.38,NNW,345,0.0,0.0,90,0.00,,,0.00,56,WeatherHawk,2013-01-21 17:00:00,
2013-01-21 09:05:00,18.2,15.8,30.38,NNE,30,0.0,0.0,90,0.00,,,0.00,64,WeatherHawk,2013-01-21 17:05:00,
2013-01-21 09:10:00,18.1,15.7,30.37,North,5,0.0,0.0,90,0.00,,,0.00,82,WeatherHawk,2013-01-21 17:10:00,
2013-01-21 09:15:00,17.7,15.0,30.37,NW,326,2.0,-999.0,89,0.00,,,0.00,60,WeatherHawk,2013-01-21 17:15:00,
2013-01-21 09:20:00,17.8,15.3,30.37,NNW,328,0.0,0.0,90,0.00,,,0.00,76,WeatherHawk,2013-01-21 17:20:00,
2013-01-21 09:25:00,18.9,16.7,30.37,NE,38,0.0,-999.0,91,0.00,,,0.00,89,WeatherHawk,2013-01-21 17:25:00,
2013-01-21 09:30:00,18.6,15.9,30.37,NNW,339,0.0,0.0,89,0.00,,,0.00,101,WeatherHawk,2013-01-21 17:30:00,
2013-01-21 09:35:00,19.2,16.8,30.37,NNW,342,0.0,0.0,90,0.00,,,0.00,104,WeatherHawk,2013-01-21 17:35:00,
2013-01-21 09:40:00,18.5,15.8,30.37,NNW,337,0.0,0.0,89,0.00,,,0.00,112,WeatherHawk,2013-01-21 17:40:00,
2013-01-21 09:46:00,20.2,17.4,30.37,NNW,337,0.0,0.0,89,0.00,,,0.00,116,WeatherHawk,2013-01-21 17:46:00,
2013-01-21 09:51:00,19.3,16.9,30.37,ENE,58,0.0,0.0,90,0.00,,,0.00,131,WeatherHawk,2013-01-21 17:51:00,
2013-01-21 09:56:00,19.0,15.5,30.37,NE,38,0.0,0.0,86,0.00,,,0.00,149,WeatherHawk,2013-01-21 17:56:00,
2013-01-21 10:01:00,19.0,15.5,30.37,NNE,16,2.0,0.0,86,0.00,,,0.00,159,WeatherHawk,2013-01-21 18:01:00,
2013-01-21 10:06:00,19.9,16.7,30.37,NNE,18,0.0,0.0,87,0.00,,,0.00,128,WeatherHawk,2013-01-21 18:06:00,
2013-01-21 10:11:00,20.0,17.0,30.36,North,4,2.0,0.0,88,0.00,,,0.00,201,WeatherHawk,2013-01-21 18:11:00,
2013-01-21 10:16:00,19.7,16.5,30.35,NW,320,2.0,0.0,87,0.00,,,0.00,142,WeatherHawk,2013-01-21 18:16:00,
2013-01-21 10:21:00,20.3,17.6,30.36,WNW,285,0.0,0.0,89,0.00,,,0.00,181,WeatherHawk,2013-01-21 18:21:00,
2013-01-21 10:26:00,20.4,16.8,30.35,NNE,15,2.0,0.0,86,0.00,,,0.00,162,WeatherHawk,2013-01-21 18:26:00,
2013-01-21 10:31:00,21.8,19.4,30.36,NNE,16,0.0,0.0,90,0.00,,,0.00,241,WeatherHawk,2013-01-21 18:31:00,
2013-01-21 10:36:00,24.2,22.2,30.35,WNW,297,0.0,0.0,92,0.00,,,0.00,207,WeatherHawk,2013-01-21 18:36:00,
2013-01-21 10:42:00,22.6,20.9,30.35,West,259,0.0,0.0,93,0.00,,,0.00,240,WeatherHawk,2013-01-21 18:42:00,
2013-01-21 10:47:00,20.9,17.4,30.35,NNW,337,0.0,0.0,86,0.00,,,0.00,217,WeatherHawk,2013-01-21 18:47:00,
2013-01-21 10:52:00,24.2,21.5,30.35,NW,318,0.0,0.0,89,0.00,,,0.00,176,WeatherHawk,2013-01-21 18:52:00,
2013-01-21 10:57:00,24.5,23.3,30.34,NW,318,0.0,0.0,95,0.00,,,0.00,278,WeatherHawk,2013-01-21 18:57:00,
2013-01-21 11:02:00,30.0,29.5,30.34,SSE,154,0.0,0.0,98,0.00,,,0.00,281,WeatherHawk,2013-01-21 19:02:00,
2013-01-21 11:07:00,30.7,30.7,30.34,SSE,153,1.0,0.0,100,0.00,,,0.00,283,WeatherHawk,2013-01-21 19:07:00,
2013-01-21 11:12:00,26.3,26.3,30.33,East,99,3.0,0.0,100,0.00,,,0.00,286,WeatherHawk,2013-01-21 19:12:00,
2013-01-21 11:17:00,28.4,27.9,30.33,East,99,2.0,0.0,98,0.00,,,0.00,289,WeatherHawk,2013-01-21 19:17:00,
2013-01-21 11:22:00,31.4,30.9,30.33,East,99,0.0,0.0,98,0.00,,,0.00,337,WeatherHawk,2013-01-21 19:22:00,
2013-01-21 11:27:00,27.2,23.9,30.33,East,99,4.0,0.0,87,0.00,,,0.00,349,WeatherHawk,2013-01-21 19:27:00,
2013-01-21 11:32:00,25.0,19.7,30.32,East,99,5.0,0.0,80,0.00,,,0.00,349,WeatherHawk,2013-01-21 19:32:00,
2013-01-21 11:38:00,25.6,20.0,30.32,East,99,4.0,0.0,79,0.00,,,0.00,350,WeatherHawk,2013-01-21 19:38:00,
2013-01-21 11:43:00,25.3,20.5,30.32,East,99,4.0,0.0,82,0.00,,,0.00,353,WeatherHawk,2013-01-21 19:43:00,
2013-01-21 11:48:00,26.2,20.5,30.32,East,99,4.0,0.0,79,0.00,,,0.00,352,WeatherHawk,2013-01-21 19:48:00,
2013-01-21 11:53:00,24.8,19.3,30.31,East,99,6.0,0.0,79,0.00,,,0.00,353,WeatherHawk,2013-01-21 19:53:00,
2013-01-21 11:58:00,25.9,20.6,30.31,East,99,4.0,0.0,80,0.00,,,0.00,354,WeatherHawk,2013-01-21 19:58:00,
2013-01-21 12:03:00,23.6,18.4,30.31,East,99,6.0,0.0,80,0.00,,,0.00,359,WeatherHawk,2013-01-21 20:03:00,
2013-01-21 12:08:00,24.2,19.0,30.30,East,99,6.0,0.0,80,0.00,,,0.00,360,WeatherHawk,2013-01-21 20:08:00,
2013-01-21 12:13:00,24.7,19.4,30.30,East,99,4.0,0.0,80,0.00,,,0.00,366,WeatherHawk,2013-01-21 20:13:00,
2013-01-21 12:18:00,25.2,20.2,30.30,East,99,4.0,0.0,81,0.00,,,0.00,366,WeatherHawk,2013-01-21 20:18:00,
2013-01-21 12:23:00,25.7,20.7,30.30,East,99,3.0,0.0,81,0.00,,,0.00,393,WeatherHawk,2013-01-21 20:23:00,
2013-01-21 12:28:00,23.8,18.8,30.29,East,99,5.0,0.0,81,0.00,,,0.00,409,WeatherHawk,2013-01-21 20:28:00,
2013-01-21 12:33:00,24.4,18.8,30.29,East,99,4.0,0.0,79,0.00,,,0.00,417,WeatherHawk,2013-01-21 20:33:00,
2013-01-21 12:38:00,24.7,20.0,30.29,East,99,7.0,0.0,82,0.00,,,0.00,366,WeatherHawk,2013-01-21 20:38:00,
2013-01-21 12:43:00,24.0,19.6,30.29,East,99,5.0,0.0,83,0.00,,,0.00,357,WeatherHawk,2013-01-21 20:43:00,
2013-01-21 12:48:00,23.8,19.1,30.29,East,99,5.0,0.0,82,0.00,,,0.00,362,WeatherHawk,2013-01-21 20:48:00,
2013-01-21 12:53:00,24.0,19.3,30.28,East,99,4.0,0.0,82,0.00,,,0.00,348,WeatherHawk,2013-01-21 20:53:00,
2013-01-21 12:58:00,23.9,19.2,30.28,East,99,4.0,0.0,82,0.00,,,0.00,348,WeatherHawk,2013-01-21 20:58:00,
2013-01-21 13:03:00,23.9,19.2,30.28,East,99,4.0,0.0,82,0.00,,,0.00,344,WeatherHawk,2013-01-21 21:03:00,
2013-01-21 13:08:00,24.8,20.7,30.28,East,99,2.0,0.0,84,0.00,,,0.00,343,WeatherHawk,2013-01-21 21:08:00,
2013-01-21 13:13:00,24.3,19.9,30.27,East,99,5.0,0.0,83,0.00,,,0.00,338,WeatherHawk,2013-01-21 21:13:00,
2013-01-21 13:18:00,24.3,20.5,30.27,East,99,3.0,0.0,85,0.00,,,0.00,335,WeatherHawk,2013-01-21 21:18:00,
2013-01-21 13:23:00,24.8,20.7,30.27,East,99,2.0,0.0,84,0.00,,,0.00,330,WeatherHawk,2013-01-21 21:23:00,
2013-01-21 13:29:00,25.4,20.7,30.27,East,99,3.0,0.0,82,0.00,,,0.00,325,WeatherHawk,2013-01-21 21:29:00,
2013-01-21 13:34:00,24.8,19.9,30.27,East,99,4.0,0.0,81,0.00,,,0.00,320,WeatherHawk,2013-01-21 21:34:00,
2013-01-21 13:39:00,25.3,20.0,30.26,East,99,5.0,0.0,80,0.00,,,0.00,316,WeatherHawk,2013-01-21 21:39:00,
2013-01-21 13:44:00,26.2,20.9,30.27,East,99,4.0,0.0,80,0.00,,,0.00,310,WeatherHawk,2013-01-21 21:44:00,
2013-01-21 13:49:00,26.0,20.1,30.26,East,99,4.0,0.0,78,0.00,,,0.00,307,WeatherHawk,2013-01-21 21:49:00,
2013-01-21 13:54:00,25.8,19.9,30.26,East,99,3.0,0.0,78,0.00,,,0.00,299,WeatherHawk,2013-01-21 21:54:00,
2013-01-21 13:59:00,27.9,21.6,30.26,East,99,4.0,0.0,77,0.00,,,0.00,294,WeatherHawk,2013-01-21 21:59:00,
2013-01-21 14:04:00,27.2,19.8,30.26,East,99,2.0,0.0,73,0.00,,,0.00,287,WeatherHawk,2013-01-21 22:04:00,
2013-01-21 14:09:00,27.8,21.6,30.26,East,99,0.0,0.0,77,0.00,,,0.00,281,WeatherHawk,2013-01-21 22:09:00,
2013-01-21 14:14:00,29.1,20.6,30.26,East,99,3.0,0.0,70,0.00,,,0.00,274,WeatherHawk,2013-01-21 22:14:00,
2013-01-21 14:19:00,29.3,20.1,30.26,East,99,3.0,0.0,68,0.00,,,0.00,267,WeatherHawk,2013-01-21 22:19:00,
2013-01-21 14:24:00,27.2,19.4,30.26,East,99,0.0,0.0,72,0.00,,,0.00,262,WeatherHawk,2013-01-21 22:24:00,
2013-01-21 14:29:00,28.1,19.6,30.26,East,99,3.0,0.0,70,0.00,,,0.00,254,WeatherHawk,2013-01-21 22:29:00,
2013-01-21 14:34:00,28.0,18.8,30.26,East,99,3.0,0.0,68,0.00,,,0.00,246,WeatherHawk,2013-01-21 22:34:00,
2013-01-21 14:39:00,27.6,18.1,30.26,East,99,2.0,0.0,67,0.00,,,0.00,239,WeatherHawk,2013-01-21 22:39:00,
2013-01-21 14:44:00,29.2,17.0,30.26,East,99,3.0,0.0,60,0.00,,,0.00,231,WeatherHawk,2013-01-21 22:44:00,
2013-01-21 14:49:00,28.9,15.6,30.26,East,99,3.0,0.0,57,0.00,,,0.00,222,WeatherHawk,2013-01-21 22:49:00,
2013-01-21 14:54:00,28.8,15.5,30.26,East,99,4.0,0.0,57,0.00,,,0.00,214,WeatherHawk,2013-01-21 22:54:00,
2013-01-21 14:59:00,29.8,16.5,30.26,East,99,0.0,0.0,57,0.00,,,0.00,205,WeatherHawk,2013-01-21 22:59:00,
2013-01-21 15:04:00,28.7,14.6,30.27,East,99,3.0,0.0,55,0.00,,,0.00,198,WeatherHawk,2013-01-21 23:04:00,
2013-01-21 15:09:00,29.3,16.0,30.26,East,99,1.0,0.0,57,0.00,,,0.00,189,WeatherHawk,2013-01-21 23:09:00,
2013-01-21 15:14:00,29.1,18.5,30.26,East,99,1.0,0.0,64,0.00,,,0.00,181,WeatherHawk,2013-01-21 23:14:00,
2013-01-21 15:19:00,29.4,15.7,30.26,East,99,0.0,0.0,56,0.00,,,0.00,171,WeatherHawk,2013-01-21 23:19:00,
2013-01-21 15:24:00,30.2,14.7,30.26,East,99,4.0,0.0,52,0.00,,,0.00,163,WeatherHawk,2013-01-21 23:24:00,
2013-01-21 15:29:00,31.0,15.9,30.26,East,99,1.0,0.0,53,0.00,,,0.00,154,WeatherHawk,2013-01-21 23:29:00,
2013-01-21 15:34:00,29.6,15.1,30.26,NE,56,4.0,0.0,54,0.00,,,0.00,145,WeatherHawk,2013-01-21 23:34:00,
2013-01-21 15:39:00,30.3,14.3,30.25,NNE,33,2.0,0.0,51,0.00,,,0.00,137,WeatherHawk,2013-01-21 23:39:00,
2013-01-21 15:44:00,29.8,13.4,30.26,NE,50,3.0,0.0,50,0.00,,,0.00,127,WeatherHawk,2013-01-21 23:44:00,
2013-01-21 15:49:00,31.2,15.6,30.26,NE,47,1.0,0.0,52,0.00,,,0.00,118,WeatherHawk,2013-01-21 23:49:00,
2013-01-21 15:54:00,30.8,13.9,30.26,ENE,58,1.0,0.0,49,0.00,,,0.00,110,WeatherHawk,2013-01-21 23:54:00,
2013-01-21 15:59:00,31.2,14.3,30.26,NE,48,1.0,0.0,49,0.00,,,0.00,101,WeatherHawk,2013-01-21 23:59:00,
2013-01-21 16:04:00,31.7,14.7,30.26,NE,50,0.0,0.0,49,0.00,,,0.00,93,WeatherHawk,2013-01-22 00:04:00,
2013-01-21 16:09:00,31.2,13.8,30.26,ENE,59,1.0,0.0,48,0.00,,,0.00,86,WeatherHawk,2013-01-22 00:09:00,
2013-01-21 16:14:00,31.4,12.5,30.26,NE,49,1.0,0.0,45,0.00,,,0.00,77,WeatherHawk,2013-01-22 00:14:00,
2013-01-21 16:19:00,31.0,13.6,30.26,ENE,62,3.0,0.0,48,0.00,,,0.00,68,WeatherHawk,2013-01-22 00:19:00,
2013-01-21 16:24:00,31.1,14.6,30.26,ENE,76,4.0,0.0,50,0.00,,,0.00,56,WeatherHawk,2013-01-22 00:24:00,
2013-01-21 16:29:00,30.7,14.7,30.27,NNE,32,2.0,0.0,51,0.00,,,0.00,51,WeatherHawk,2013-01-22 00:29:00,
2013-01-21 16:34:00,30.4,15.7,30.27,East,95,2.0,0.0,54,0.00,,,0.00,35,WeatherHawk,2013-01-22 00:34:00,
2013-01-21 16:39:00,29.8,16.1,30.27,East,89,0.0,0.0,56,0.00,,,0.00,12,WeatherHawk,2013-01-22 00:39:00,
2013-01-21 16:44:00,29.2,15.5,30.27,East,99,4.0,0.0,56,0.00,,,0.00,8,WeatherHawk,2013-01-22 00:44:00,
2013-01-21 16:49:00,28.9,16.8,30.28,ESE,102,3.0,0.0,60,0.00,,,0.00,6,WeatherHawk,2013-01-22 00:49:00,
2013-01-21 16:54:00,30.1,16.8,30.28,NE,48,0.0,0.0,57,0.00,,,0.00,4,WeatherHawk,2013-01-22 00:54:00,
2013-01-21 16:59:00,28.3,16.6,30.28,ESE,118,4.0,0.0,61,0.00,,,0.00,3,WeatherHawk,2013-01-22 00:59:00,
2013-01-21 17:04:00,28.3,17.8,30.28,ESE,116,3.0,0.0,64,0.00,,,0.00,3,WeatherHawk,2013-01-22 01:04:00,
2013-01-21 17:09:00,28.4,17.4,30.28,ESE,115,6.0,0.0,63,0.00,,,0.00,0,WeatherHawk,2013-01-22 01:09:00,
2013-01-21 17:15:00,27.2,17.7,30.28,ESE,116,6.0,0.0,67,0.00,,,0.00,0,WeatherHawk,2013-01-22 01:15:00,
2013-01-21 17:20:00,26.7,18.3,30.28,SE,128,3.0,0.0,70,0.00,,,0.00,0,WeatherHawk,2013-01-22 01:20:00,
2013-01-21 17:25:00,27.5,16.9,30.28,ESE,119,3.0,0.0,64,0.00,,,0.00,0,WeatherHawk,2013-01-22 01:25:00,
2013-01-21 17:30:00,27.0,17.5,30.28,SE,131,4.0,0.0,67,0.00,,,0.00,0,WeatherHawk,2013-01-22 01:30:00,
2013-01-21 17:35:00,26.2,17.8,30.28,ESE,118,5.0,0.0,70,0.00,,,0.00,0,WeatherHawk,2013-01-22 01:35:00,
2013-01-21 17:40:00,26.4,18.3,30.29,ESE,119,5.0,0.0,71,0.00,,,0.00,1,WeatherHawk,2013-01-22 01:40:00,
2013-01-21 17:45:00,26.3,17.8,30.29,ESE,119,5.0,0.0,70,0.00,,,0.00,1,WeatherHawk,2013-01-22 01:45:00,
2013-01-21 17:50:00,26.4,17.6,30.29,SE,130,4.0,0.0,69,0.00,,,0.00,1,WeatherHawk,2013-01-22 01:50:00,
2013-01-21 17:55:00,26.0,17.5,30.29,ESE,109,5.0,0.0,70,0.00,,,0.00,0,WeatherHawk,2013-01-22 01:55:00,
2013-01-21 18:00:00,25.6,17.9,30.29,East,100,8.0,0.0,72,0.00,,,0.00,0,WeatherHawk,2013-01-22 02:00:00,
2013-01-21 18:05:00,25.2,17.7,30.29,ESE,110,6.0,-999.0,73,0.00,,,0.00,1,WeatherHawk,2013-01-22 02:05:00,
2013-01-21 18:10:00,25.5,19.0,30.29,ESE,103,6.0,0.0,76,0.00,,,0.00,0,WeatherHawk,2013-01-22 02:10:00,
2013-01-21 18:15:00,25.1,19.2,30.29,ESE,120,7.0,0.0,78,0.00,,,0.00,1,WeatherHawk,2013-01-22 02:15:00,
2013-01-21 18:20:00,25.9,20.3,30.29,ESE,117,8.0,0.0,79,0.00,,,0.00,0,WeatherHawk,2013-01-22 02:20:00,
2013-01-21 18:25:00,25.5,19.6,30.29,ESE,119,8.0,0.0,78,0.00,,,0.00,0,WeatherHawk,2013-01-22 02:25:00,
2013-01-21 18:30:00,25.7,20.1,30.29,ESE,110,7.0,0.0,79,0.00,,,0.00,0,WeatherHawk,2013-01-22 02:30:00,
2013-01-21 18:35:00,25.3,19.4,30.30,ESE,104,7.0,-999.0,78,0.00,,,0.00,0,WeatherHawk,2013-01-22 02:35:00,
2013-01-21 18:40:00,25.2,19.4,30.30,ESE,110,4.0,0.0,78,0.00,,,0.00,0,WeatherHawk,2013-01-22 02:40:00,
2013-01-21 18:45:00,24.6,19.3,30.30,East,96,3.0,0.0,80,0.00,,,0.00,0,WeatherHawk,2013-01-22 02:45:00,
2013-01-21 18:50:00,24.1,19.5,30.30,ESE,111,0.0,0.0,82,0.00,,,0.00,0,WeatherHawk,2013-01-22 02:50:00,
2013-01-21 18:55:00,24.2,19.8,30.30,SE,124,2.0,0.0,83,0.00,,,0.00,0,WeatherHawk,2013-01-22 02:55:00,
2013-01-21 19:00:00,24.8,20.9,30.30,ESE,104,3.0,-999.0,85,0.00,,,0.00,1,WeatherHawk,2013-01-22 03:00:00,
2013-01-21 19:05:00,24.5,20.4,30.30,ESE,105,4.0,0.0,84,0.00,,,0.00,1,WeatherHawk,2013-01-22 03:05:00,
2013-01-21 19:10:00,24.4,20.6,30.30,East,101,3.0,0.0,85,0.00,,,0.00,1,WeatherHawk,2013-01-22 03:10:00,
2013-01-21 19:15:00,24.4,20.0,30.30,ESE,109,4.0,0.0,83,0.00,,,0.00,0,WeatherHawk,2013-01-22 03:15:00,
2013-01-21 19:20:00,23.7,19.9,30.30,ESE,119,4.0,-999.0,85,0.00,,,0.00,0,WeatherHawk,2013-01-22 03:20:00,
2013-01-21 19:25:00,23.6,20.0,30.30,ESE,122,3.0,-999.0,86,0.00,,,0.00,0,WeatherHawk,2013-01-22 03:25:00,
2013-01-21 19:30:00,23.4,19.8,30.30,ESE,111,4.0,0.0,86,0.00,,,0.00,1,WeatherHawk,2013-01-22 03:30:00,
2013-01-21 19:35:00,24.4,21.1,30.30,SE,125,3.0,-999.0,87,0.00,,,0.00,1,WeatherHawk,2013-01-22 03:35:00,
2013-01-21 19:40:00,24.0,20.4,30.30,ESE,121,3.0,-999.0,86,0.00,,,0.00,1,WeatherHawk,2013-01-22 03:40:00,
2013-01-21 19:45:00,25.0,21.5,30.30,East,99,1.0,0.0,86,0.00,,,0.00,0,WeatherHawk,2013-01-22 03:45:00,
2013-01-21 19:50:00,25.6,21.4,30.30,East,82,3.0,-999.0,84,0.00,,,0.00,1,WeatherHawk,2013-01-22 03:50:00,
2013-01-21 19:55:00,24.8,20.1,30.30,ESE,107,4.0,0.0,82,0.00,,,0.00,0,WeatherHawk,2013-01-22 03:55:00,
2013-01-21 20:00:00,24.2,19.5,30.29,ESE,117,2.0,0.0,82,0.00,,,0.00,0,WeatherHawk,2013-01-22 04:00:00,
2013-01-21 20:05:00,23.4,19.6,30.29,ESE,113,1.0,0.0,85,0.00,,,0.00,0,WeatherHawk,2013-01-22 04:05:00,
2013-01-21 20:10:00,24.4,21.1,30.29,ESE,120,1.0,0.0,87,0.00,,,0.00,1,WeatherHawk,2013-01-22 04:10:00,
2013-01-21 20:15:00,23.2,20.0,30.30,ESE,120,0.0,0.0,87,0.00,,,0.00,0,WeatherHawk,2013-01-22 04:15:00,
2013-01-21 20:20:00,24.7,22.2,30.30,ESE,120,0.0,0.0,90,0.00,,,0.00,0,WeatherHawk,2013-01-22 04:20:00,
2013-01-21 20:25:00,24.2,21.7,30.30,ESE,120,0.0,0.0,90,0.00,,,0.00,0,WeatherHawk,2013-01-22 04:25:00,
2013-01-21 20:30:00,24.1,21.6,30.30,ESE,120,0.0,0.0,90,0.00,,,0.00,0,WeatherHawk,2013-01-22 04:30:00,
2013-01-21 20:35:00,23.6,21.4,30.29,ESE,120,0.0,0.0,91,0.00,,,0.00,0,WeatherHawk,2013-01-22 04:35:00,
2013-01-21 20:40:00,23.3,21.8,30.30,SW,232,0.0,0.0,94,0.00,,,0.00,0,WeatherHawk,2013-01-22 04:40:00,
2013-01-21 20:45:00,23.0,21.5,30.30,SW,228,0.0,0.0,94,0.00,,,0.00,0,WeatherHawk,2013-01-22 04:45:00,
2013-01-21 20:50:00,22.6,21.4,30.30,SE,143,2.0,0.0,95,0.00,,,0.00,0,WeatherHawk,2013-01-22 04:50:00,
2013-01-21 20:55:00,23.6,22.2,30.29,SE,145,2.0,0.0,94,0.00,,,0.00,0,WeatherHawk,2013-01-22 04:55:00,
2013-01-21 21:00:00,23.3,21.9,30.29,ESE,122,0.0,0.0,94,0.00,,,0.00,0,WeatherHawk,2013-01-22 05:00:00,
2013-01-21 21:01:00,22.9,21.2,30.29,ESE,122,0.0,0.0,93,0.00,,,0.00,0,WeatherHawk,2013-01-22 05:01:00,
2013-01-21 21:03:00,23.6,22.1,30.30,ESE,122,0.0,0.0,94,0.00,,,0.00,1,WeatherHawk,2013-01-22 05:03:00,
2013-01-21 21:08:00,23.3,22.1,30.30,ESE,122,0.0,0.0,95,0.00,,,0.00,1,WeatherHawk,2013-01-22 05:08:00,
2013-01-21 21:13:00,23.2,22.2,30.30,ESE,122,0.0,0.0,96,0.00,,,0.00,0,WeatherHawk,2013-01-22 05:13:00,
2013-01-21 21:18:00,22.4,21.4,30.30,ESE,122,0.0,0.0,96,0.00,,,0.00,0,WeatherHawk,2013-01-22 05:18:00,
2013-01-21 21:23:00,22.4,21.7,30.30,ESE,122,0.0,0.0,97,0.00,,,0.00,0,WeatherHawk,2013-01-22 05:23:00,
2013-01-21 21:28:00,22.1,21.8,30.30,ESE,122,0.0,0.0,99,0.00,,,0.00,0,WeatherHawk,2013-01-22 05:28:00,
2013-01-21 21:33:00,21.4,21.1,30.30,ESE,122,0.0,0.0,99,0.00,,,0.00,0,WeatherHawk,2013-01-22 05:33:00,
2013-01-21 21:39:00,22.6,22.6,30.31,ESE,122,0.0,0.0,100,0.00,,,0.00,0,WeatherHawk,2013-01-22 05:39:00,
2013-01-21 21:44:00,23.8,23.8,30.30,ESE,122,0.0,0.0,100,0.00,,,0.00,0,WeatherHawk,2013-01-22 05:44:00,
2013-01-21 21:49:00,23.3,23.3,30.30,East,92,0.0,0.0,100,0.00,,,0.00,0,WeatherHawk,2013-01-22 05:49:00,
2013-01-21 21:54:00,22.5,22.5,30.30,SE,127,1.0,0.0,100,0.00,,,0.00,1,WeatherHawk,2013-01-22 05:54:00,
2013-01-21 22:00:00,22.3,22.3,30.30,ENE,71,3.0,0.0,100,0.00,,,0.00,0,WeatherHawk,2013-01-22 06:00:00,
2013-01-21 22:05:00,22.4,22.4,30.30,East,87,4.0,0.0,100,0.00,,,0.00,0,WeatherHawk,2013-01-22 06:05:00,
2013-01-21 22:10:00,23.1,23.1,30.30,ENE,58,3.0,0.0,100,0.00,,,0.00,1,WeatherHawk,2013-01-22 06:10:00,
2013-01-21 22:15:00,22.8,22.8,30.30,East,96,5.0,0.0,100,0.00,,,0.00,0,WeatherHawk,2013-01-22 06:15:00,
2013-01-21 22:20:00,22.2,22.2,30.30,East,93,5.0,0.0,100,0.00,,,0.00,0,WeatherHawk,2013-01-22 06:20:00,
2013-01-21 22:25:00,21.7,21.7,30.30,East,80,5.0,0.0,100,0.00,,,0.00,1,WeatherHawk,2013-01-22 06:25:00,
2013-01-21 22:30:00,21.4,21.4,30.30,NE,47,3.0,0.0,100,0.00,,,0.00,0,WeatherHawk,2013-01-22 06:30:00,
2013-01-21 22:36:00,20.5,20.5,30.30,East,88,5.0,0.0,100,0.00,,,0.00,1,WeatherHawk,2013-01-22 06:36:00,
2013-01-21 22:41:00,20.4,20.4,30.30,ESE,113,6.0,0.0,100,0.00,,,0.00,0,WeatherHawk,2013-01-22 06:41:00,
2013-01-21 22:47:00,20.3,20.3,30.30,ESE,115,4.0,0.0,100,0.00,,,0.00,0,WeatherHawk,2013-01-22 06:47:00,
2013-01-21 22:52:00,20.9,20.9,30.30,East,97,6.0,0.0,100,0.00,,,0.00,0,WeatherHawk,2013-01-22 06:52:00,
2013-01-21 22:57:00,20.6,20.6,30.31,East,79,5.0,0.0,100,0.00,,,0.00,0,WeatherHawk,2013-01-22 06:57:00,
2013-01-21 23:02:00,20.3,20.3,30.31,East,91,4.0,0.0,100,0.00,,,0.00,1,WeatherHawk,2013-01-22 07:02:00,
2013-01-21 23:07:00,20.5,20.5,30.31,ESE,115,2.0,0.0,100,0.00,,,0.00,0,WeatherHawk,2013-01-22 07:07:00,
2013-01-21 23:12:00,20.4,20.1,30.31,NNE,17,0.0,0.0,99,0.00,,,0.00,0,WeatherHawk,2013-01-22 07:12:00,
2013-01-21 23:17:00,20.4,20.0,30.31,East,93,0.0,0.0,98,0.00,,,0.00,0,WeatherHawk,2013-01-22 07:17:00,
2013-01-21 23:22:00,20.4,19.7,30.31,ENE,60,0.0,0.0,97,0.00,,,0.00,0,WeatherHawk,2013-01-22 07:22:00,
2013-01-21 23:27:00,20.3,19.5,30.30,NNE,16,0.0,0.0,97,0.00,,,0.00,0,WeatherHawk,2013-01-22 07:27:00,
2013-01-21 23:32:00,20.1,19.1,30.30,North,1,0.0,0.0,96,0.00,,,0.00,0,WeatherHawk,2013-01-22 07:32:00,
2013-01-21 23:37:00,19.9,18.9,30.31,NE,53,2.0,0.0,96,0.00,,,0.00,0,WeatherHawk,2013-01-22 07:37:00,
2013-01-21 23:42:00,19.9,18.7,30.31,ENE,60,0.0,0.0,95,0.00,,,0.00,1,WeatherHawk,2013-01-22 07:42:00,
2013-01-21 23:47:00,19.7,18.5,30.30,ENE,63,0.0,0.0,95,0.00,,,0.00,0,WeatherHawk,2013-01-22 07:47:00,
2013-01-21 23:52:00,19.7,18.3,30.30,ENE,63,0.0,0.0,94,0.00,,,0.00,0,WeatherHawk,2013-01-22 07:52:00,
2013-01-21 23:57:00,19.7,18.5,30.30,North,6,0.0,0.0,95,0.00,,,0.00,0,WeatherHawk,2013-01-22 07:57:00,